STARLINK-5606, 55767

Orbit data source: Space-Track

STARLINK-5606, 55767 is a payload satellite owned by SpaceX/Seattle (US) in LEO that was launched on Fri, 03 Mar 2023 UTC via an FALCON 9 launch vehicle from the Air Force Western Test Range (AFWTR). Payload-class satellites include a variety of spacecraft equipped with specific instruments for various scientific and technological missions. These include communications satellites like Starlink; space stations such as the ISS; scientific satellites like the Hubble; Earth observation satellites from companies like Planet Labs, Umbra, and HawkEye 360; GPS; miniature CubeSats for education and research; and military/defense satellites.

Loading next visibility...
Identifier
55767, 2023-028AC
Orbit
LEO
Country
Flag of USUS
Related business
Manufacturer
SpaceX/Seattle
Mission
Operational Commercial Communications
Bus & Motor
STARLINK, Unknown motor
Mass
305 kg wet, ~290 kg dry
Launch date (UTC)
2023-03-03 (3 years ago)
Launch vehicle
FALCON 9
Launch site
Air Force Western Test Range (AFWTR)
Object type
Payload
Rocket body
Debris
Shape & HBR
Box + 1 Pan, 10.1 m
Radar Cross Section
11.087 m², Large (>1 m²)

Expand to show TLE details & history
Last TLE update: 2 days ago

TLE from 2 days ago
0 STARLINK-5606
1 55767U 23028AC  26171.13339837  .00001179  00000-0  10662-3 0  9995
2 55767  69.9990 326.3419 0003350 267.0833  92.9943 14.98331248181854
Epoch: 2026-06-20T03:12Z
TLE epoch observation values (Epoch: 2026-06-20T03:12:05.619Z)
Latitude
0.00002°
Longitude
9.9661°
Altitude
574.598 km
Speed
7.574 km/s
True Right ascension
21h 45m 22s
True Declination
0° 00' 00"
Sunlit
Object was in full shadow at epoch
Visualization orbit readout
Latitude
Unknown
Longitude
Unknown
Altitude
Unknown
Speed
Unknown
Apparent Right ascension
Unknown
Apparent Declination
Unknown
Sunlit
N/A
Visualization observer readout
Local Sidereal Time
21:30:48
Azimuth
Unknown
Elevation
Unknown
Doppler factor
Unknown
Orbital elements
Apogee altitude
572.328 km
Perigee altitude
567.673 km
Semi-major axis
6,948.137 km
Eccentricity
0.00034
Inclination
69.999°
RAAN
326.3419°
Arg. of periapsis
267.0833°
True anomaly
93.03263°
Mean anomaly
92.9943°
Eccentric anomaly
93.01347°
Mean motion
3.74749 °/min
Orbital period
96.06 mins
BSTAR
0.00010662
Loading maneuver chart data...
Computing Atmospheric mass density...
Loading historical data...
Loading historical data...
Loading historical data...
Loading historical data...
Loading historical data...
Loading historical data...
Loading historical data...

Documentation

Showing up to 5 results
|